Time,TemperatureF,DewpointF,PressureIn,WindDirection,WindDirectionDegrees,WindSpeedMPH,WindSpeedGustMPH,Humidity,HourlyPrecipIn,Conditions,Clouds,dailyrainin,SoftwareType,DateUTC
2013-01-19 00:00:00,49.9,11.7,30.08,WSW,242,0.0,0.0,21,0.00,,,0.00,Weather View 32 v70,2013-01-19 07:00:00,
2013-01-19 00:05:00,49.9,11.9,30.08,WSW,242,0.0,0.0,21,0.00,,,0.00,Weather View 32 v70,2013-01-19 07:05:00,
2013-01-19 00:10:00,49.7,11.9,30.08,WSW,242,0.0,0.0,22,0.00,,,0.00,Weather View 32 v70,2013-01-19 07:10:00,
2013-01-19 00:20:00,49.4,11.8,30.08,WSW,242,0.0,0.0,22,0.00,,,0.00,Weather View 32 v70,2013-01-19 07:20:00,
2013-01-19 00:25:00,49.4,11.7,30.08,WSW,242,0.0,0.0,22,0.00,,,0.00,Weather View 32 v70,2013-01-19 07:25:00,
2013-01-19 00:30:00,49.3,11.6,30.08,WSW,242,0.0,0.0,22,0.00,,,0.00,Weather View 32 v70,2013-01-19 07:30:00,
2013-01-19 00:35:00,49.2,11.5,30.08,WSW,242,0.0,0.0,22,0.00,,,0.00,Weather View 32 v70,2013-01-19 07:35:00,
2013-01-19 00:45:00,49.0,11.6,30.09,WSW,242,0.0,0.0,22,0.00,,,0.00,Weather View 32 v70,2013-01-19 07:45:00,
2013-01-19 00:50:00,48.4,11.9,30.08,WSW,242,0.0,0.0,23,0.00,,,0.00,Weather View 32 v70,2013-01-19 07:50:00,
2013-01-19 00:55:00,47.5,12.3,30.08,WSW,242,0.0,0.0,24,0.00,,,0.00,Weather View 32 v70,2013-01-19 07:55:00,
2013-01-19 01:05:00,45.5,12.5,30.09,WSW,242,0.0,0.0,26,0.00,,,0.00,Weather View 32 v70,2013-01-19 08:05:00,
2013-01-19 01:10:00,44.8,12.5,30.10,WSW,242,0.0,0.0,27,0.00,,,0.00,Weather View 32 v70,2013-01-19 08:10:00,
2013-01-19 01:15:00,43.9,12.5,30.10,WSW,242,0.0,0.0,28,0.00,,,0.00,Weather View 32 v70,2013-01-19 08:15:00,
2013-01-19 01:25:00,42.7,13.1,30.11,WSW,242,0.0,0.0,30,0.00,,,0.00,Weather View 32 v70,2013-01-19 08:25:00,
2013-01-19 01:30:00,41.7,12.9,30.11,WSW,242,0.0,0.0,31,0.00,,,0.00,Weather View 32 v70,2013-01-19 08:30:00,
2013-01-19 01:35:00,40.6,12.8,30.11,WSW,242,0.0,0.0,32,0.00,,,0.00,Weather View 32 v70,2013-01-19 08:35:00,
2013-01-19 01:40:00,40.4,12.0,30.11,WSW,242,0.0,0.0,31,0.00,,,0.00,Weather View 32 v70,2013-01-19 08:40:00,
2013-01-19 01:45:00,46.3,11.3,30.11,WSW,242,0.0,0.0,24,0.00,,,0.00,Weather View 32 v70,2013-01-19 08:45:00,
2013-01-19 01:50:00,45.3,13.3,30.12,WSW,242,0.0,0.0,27,0.00,,,0.00,Weather View 32 v70,2013-01-19 08:50:00,
2013-01-19 02:00:00,42.0,13.1,30.13,WSW,242,0.0,0.0,30,0.00,,,0.00,Weather View 32 v70,2013-01-19 09:00:00,
2013-01-19 02:10:00,41.7,12.7,30.13,WSW,242,0.0,0.0,30,0.00,,,0.00,Weather View 32 v70,2013-01-19 09:10:00,
2013-01-19 02:15:00,42.7,12.4,30.13,WSW,242,0.0,0.0,29,0.00,,,0.00,Weather View 32 v70,2013-01-19 09:15:00,
2013-01-19 02:20:00,45.4,12.6,30.12,WSW,242,0.0,0.0,26,0.00,,,0.00,Weather View 32 v70,2013-01-19 09:20:00,
2013-01-19 02:30:00,49.1,12.6,30.12,North,359,0.0,5.0,23,0.00,,,0.00,Weather View 32 v70,2013-01-19 09:30:00,
2013-01-19 02:35:00,49.4,12.7,30.12,North,359,0.0,5.0,23,0.00,,,0.00,Weather View 32 v70,2013-01-19 09:35:00,
2013-01-19 02:40:00,49.5,12.9,30.12,North,359,0.0,5.0,23,0.00,,,0.00,Weather View 32 v70,2013-01-19 09:40:00,
2013-01-19 02:45:00,50.1,12.7,30.13,North,11,1.0,6.0,22,0.00,,,0.00,Weather View 32 v70,2013-01-19 09:45:00,
2013-01-19 02:50:00,50.7,12.2,30.13,North,359,1.0,6.0,21,0.00,,,0.00,Weather View 32 v70,2013-01-19 09:50:00,
2013-01-19 02:55:00,50.7,12.7,30.12,NNE,15,0.0,6.0,22,0.00,,,0.00,Weather View 32 v70,2013-01-19 09:55:00,
2013-01-19 03:00:00,50.3,12.7,30.11,North,1,0.0,6.0,22,0.00,,,0.00,Weather View 32 v70,2013-01-19 10:00:00,
2013-01-19 03:05:00,49.5,12.9,30.11,NNW,342,6.0,7.0,23,0.00,,,0.00,Weather View 32 v70,2013-01-19 10:05:00,
2013-01-19 03:15:00,49.8,12.7,30.12,NNE,21,4.0,8.0,22,0.00,,,0.00,Weather View 32 v70,2013-01-19 10:15:00,
2013-01-19 03:20:00,49.9,12.7,30.11,NE,52,12.0,22.0,22,0.03,,,0.03,Weather View 32 v70,2013-01-19 10:20:00,
2013-01-19 03:25:00,49.6,13.0,30.11,North,1,5.0,22.0,23,0.05,,,0.05,Weather View 32 v70,2013-01-19 10:25:00,
2013-01-19 03:30:00,49.3,13.1,30.12,North,10,0.0,22.0,23,0.05,,,0.05,Weather View 32 v70,2013-01-19 10:30:00,
2013-01-19 03:35:00,48.7,13.2,30.12,North,10,0.0,22.0,24,0.05,,,0.05,Weather View 32 v70,2013-01-19 10:35:00,
2013-01-19 03:45:00,47.7,13.0,30.13,North,10,0.0,22.0,24,0.05,,,0.05,Weather View 32 v70,2013-01-19 10:45:00,
2013-01-19 03:50:00,47.4,13.1,30.13,North,10,0.0,22.0,25,0.05,,,0.05,Weather View 32 v70,2013-01-19 10:50:00,
2013-01-19 03:55:00,46.8,13.1,30.13,North,10,0.0,22.0,25,0.05,,,0.05,Weather View 32 v70,2013-01-19 10:55:00,
2013-01-19 04:00:00,46.9,13.0,30.13,North,10,0.0,22.0,25,0.05,,,0.05,Weather View 32 v70,2013-01-19 11:00:00,
2013-01-19 04:05:00,47.0,13.1,30.13,North,10,0.0,22.0,25,0.05,,,0.05,Weather View 32 v70,2013-01-19 11:05:00,
2013-01-19 04:10:00,46.4,13.1,30.13,North,10,0.0,22.0,26,0.05,,,0.05,Weather View 32 v70,2013-01-19 11:10:00,
2013-01-19 04:15:00,45.8,13.1,30.13,North,10,0.0,22.0,26,0.05,,,0.05,Weather View 32 v70,2013-01-19 11:15:00,
2013-01-19 05:50:00,46.1,12.6,30.16,North,10,0.0,1.0,26,0.00,,,0.05,Weather View 32 v70,2013-01-19 12:50:00,
2013-01-19 05:55:00,46.1,12.6,30.16,North,10,0.0,1.0,26,0.00,,,0.05,Weather View 32 v70,2013-01-19 12:55:00,
2013-01-19 06:00:00,45.7,12.7,30.16,North,10,0.0,1.0,26,0.00,,,0.05,Weather View 32 v70,2013-01-19 13:00:00,
2013-01-19 06:05:00,45.3,12.9,30.17,North,10,0.0,1.0,27,0.00,,,0.05,Weather View 32 v70,2013-01-19 13:05:00,
2013-01-19 06:10:00,44.0,13.0,30.17,North,10,0.0,1.0,28,0.00,,,0.05,Weather View 32 v70,2013-01-19 13:10:00,
2013-01-19 06:15:00,42.8,12.8,30.18,North,10,0.0,1.0,29,0.00,,,0.05,Weather View 32 v70,2013-01-19 13:15:00,
2013-01-19 06:20:00,41.3,12.8,30.18,North,10,0.0,1.0,31,0.00,,,0.05,Weather View 32 v70,2013-01-19 13:20:00,
2013-01-19 06:30:00,38.1,12.7,30.18,North,10,0.0,1.0,35,0.00,,,0.05,Weather View 32 v70,2013-01-19 13:30:00,
2013-01-19 06:35:00,37.2,12.6,30.18,North,10,0.0,1.0,36,0.00,,,0.05,Weather View 32 v70,2013-01-19 13:35:00,
2013-01-19 06:40:00,36.4,12.6,30.19,North,10,0.0,1.0,37,0.00,,,0.05,Weather View 32 v70,2013-01-19 13:40:00,
2013-01-19 06:45:00,36.1,12.7,30.19,North,10,0.0,0.0,38,0.00,,,0.05,Weather View 32 v70,2013-01-19 13:45:00,
2013-01-19 06:55:00,35.3,12.7,30.19,North,10,0.0,0.0,39,0.00,,,0.05,Weather View 32 v70,2013-01-19 13:55:00,
2013-01-19 07:05:00,34.9,12.7,30.20,North,10,0.0,0.0,39,0.00,,,0.05,Weather View 32 v70,2013-01-19 14:05:00,
2013-01-19 07:15:00,34.6,12.7,30.20,North,10,0.0,0.0,40,0.00,,,0.05,Weather View 32 v70,2013-01-19 14:15:00,
2013-01-19 07:20:00,34.4,12.7,30.20,North,10,0.0,0.0,40,0.00,,,0.05,Weather View 32 v70,2013-01-19 14:20:00,
2013-01-19 07:25:00,36.1,12.7,30.20,North,10,0.0,0.0,38,0.00,,,0.05,Weather View 32 v70,2013-01-19 14:25:00,
2013-01-19 07:30:00,38.9,13.0,30.21,North,10,0.0,0.0,34,0.00,,,0.05,Weather View 32 v70,2013-01-19 14:30:00,
2013-01-19 07:40:00,42.7,13.2,30.21,North,10,0.0,0.0,30,0.00,,,0.05,Weather View 32 v70,2013-01-19 14:40:00,
2013-01-19 07:45:00,43.5,13.8,30.21,North,10,0.0,0.0,30,0.00,,,0.05,Weather View 32 v70,2013-01-19 14:45:00,
2013-01-19 07:50:00,40.1,14.0,30.21,North,10,0.0,0.0,34,0.00,,,0.05,Weather View 32 v70,2013-01-19 14:50:00,
2013-01-19 07:55:00,36.6,13.5,30.22,North,10,0.0,0.0,38,0.00,,,0.05,Weather View 32 v70,2013-01-19 14:55:00,
2013-01-19 08:05:00,35.0,13.2,30.22,North,10,0.0,0.0,40,0.00,,,0.05,Weather View 32 v70,2013-01-19 15:05:00,
2013-01-19 08:10:00,35.8,13.0,30.22,North,10,0.0,0.0,39,0.00,,,0.05,Weather View 32 v70,2013-01-19 15:10:00,
2013-01-19 08:19:00,36.9,13.8,30.22,North,10,0.0,0.0,38,0.00,,,0.05,Weather View 32 v70,2013-01-19 15:19:00,
2013-01-19 08:25:00,38.0,14.3,30.22,North,10,0.0,0.0,38,0.00,,,0.05,Weather View 32 v70,2013-01-19 15:25:00,
2013-01-19 08:30:00,39.3,14.2,30.22,North,10,0.0,0.0,35,0.00,,,0.05,Weather View 32 v70,2013-01-19 15:30:00,
2013-01-19 08:40:00,45.4,13.2,30.22,North,10,0.0,0.0,27,0.00,,,0.05,Weather View 32 v70,2013-01-19 15:40:00,
2013-01-19 08:45:00,47.4,13.4,30.23,North,10,0.0,0.0,25,0.00,,,0.05,Weather View 32 v70,2013-01-19 15:45:00,
2013-01-19 08:50:00,48.3,13.6,30.23,North,10,0.0,0.0,25,0.00,,,0.05,Weather View 32 v70,2013-01-19 15:50:00,
2013-01-19 08:55:00,47.7,15.5,30.24,North,10,0.0,0.0,27,0.00,,,0.05,Weather View 32 v70,2013-01-19 15:55:00,
2013-01-19 09:00:00,43.6,15.6,30.24,North,10,0.0,0.0,32,0.00,,,0.05,Weather View 32 v70,2013-01-19 16:00:00,
2013-01-19 09:10:00,41.1,15.2,30.24,North,10,0.0,0.0,35,0.00,,,0.05,Weather View 32 v70,2013-01-19 16:10:00,
2013-01-19 09:15:00,41.2,15.1,30.25,North,10,0.0,0.0,34,0.00,,,0.05,Weather View 32 v70,2013-01-19 16:15:00,
2013-01-19 09:20:00,41.4,15.3,30.25,North,10,0.0,0.0,34,0.00,,,0.05,Weather View 32 v70,2013-01-19 16:20:00,
2013-01-19 09:30:00,42.0,15.6,30.25,North,10,0.0,0.0,34,0.00,,,0.05,Weather View 32 v70,2013-01-19 16:30:00,
2013-01-19 09:40:00,42.7,15.8,30.26,North,10,0.0,0.0,33,0.00,,,0.05,Weather View 32 v70,2013-01-19 16:40:00,
2013-01-19 09:45:00,43.2,15.9,30.26,North,10,0.0,0.0,33,0.00,,,0.05,Weather View 32 v70,2013-01-19 16:45:00,
2013-01-19 09:50:00,43.6,16.1,30.26,North,10,0.0,0.0,33,0.00,,,0.05,Weather View 32 v70,2013-01-19 16:50:00,
2013-01-19 09:55:00,44.0,16.2,30.26,North,10,0.0,0.0,32,0.00,,,0.05,Weather View 32 v70,2013-01-19 16:55:00,
2013-01-19 10:00:00,44.3,16.3,30.26,North,10,0.0,0.0,32,0.00,,,0.05,Weather View 32 v70,2013-01-19 17:00:00,
2013-01-19 10:10:00,45.1,16.4,30.26,North,10,0.0,0.0,31,0.00,,,0.05,Weather View 32 v70,2013-01-19 17:10:00,
2013-01-19 10:15:00,45.6,16.5,30.26,North,10,0.0,0.0,31,0.00,,,0.05,Weather View 32 v70,2013-01-19 17:15:00,
2013-01-19 10:30:00,47.5,16.8,30.25,North,10,0.0,0.0,29,0.00,,,0.05,Weather View 32 v70,2013-01-19 17:30:00,
2013-01-19 10:40:00,48.7,16.7,30.25,North,10,0.0,0.0,28,0.00,,,0.05,Weather View 32 v70,2013-01-19 17:40:00,
2013-01-19 10:45:00,49.3,16.3,30.25,North,10,0.0,0.0,27,0.00,,,0.05,Weather View 32 v70,2013-01-19 17:45:00,
2013-01-19 10:55:00,49.7,15.7,30.24,North,10,0.0,0.0,26,0.00,,,0.05,Weather View 32 v70,2013-01-19 17:55:00,
2013-01-19 11:05:00,50.6,15.5,30.24,North,10,0.0,0.0,24,0.00,,,0.05,Weather View 32 v70,2013-01-19 18:05:00,
2013-01-19 11:10:00,50.6,15.5,30.24,North,10,0.0,0.0,24,0.00,,,0.05,Weather View 32 v70,2013-01-19 18:10:00,
2013-01-19 11:20:00,52.0,15.5,30.23,North,10,0.0,0.0,23,0.00,,,0.05,Weather View 32 v70,2013-01-19 18:20:00,
2013-01-19 11:25:00,52.0,15.0,30.23,North,10,0.0,0.0,23,0.00,,,0.05,Weather View 32 v70,2013-01-19 18:25:00,
2013-01-19 11:35:00,53.2,14.4,30.23,North,10,0.0,0.0,21,0.00,,,0.05,Weather View 32 v70,2013-01-19 18:35:00,
2013-01-19 11:40:00,53.4,14.0,30.22,North,10,0.0,0.0,21,0.00,,,0.05,Weather View 32 v70,2013-01-19 18:40:00,
2013-01-19 11:45:00,53.8,14.3,30.22,North,10,0.0,0.0,21,0.00,,,0.05,Weather View 32 v70,2013-01-19 18:45:00,
2013-01-19 11:50:00,54.6,13.6,30.21,North,10,0.0,0.0,19,0.00,,,0.05,Weather View 32 v70,2013-01-19 18:50:00,
2013-01-19 12:00:00,54.8,13.1,30.21,North,10,0.0,0.0,19,0.00,,,0.05,Weather View 32 v70,2013-01-19 19:00:00,
2013-01-19 12:15:00,55.4,12.5,30.20,North,10,0.0,0.0,18,0.00,,,0.05,Weather View 32 v70,2013-01-19 19:15:00,
2013-01-19 12:22:00,55.9,12.6,30.20,North,10,0.0,0.0,18,0.00,,,0.05,Weather View 32 v70,2013-01-19 19:22:00,
2013-01-19 12:30:00,56.2,12.5,30.19,North,10,0.0,0.0,18,0.00,,,0.05,Weather View 32 v70,2013-01-19 19:30:00,
2013-01-19 12:40:00,56.9,12.6,30.18,North,10,0.0,0.0,17,0.00,,,0.05,Weather View 32 v70,2013-01-19 19:40:00,
2013-01-19 12:45:00,57.2,12.3,30.18,North,10,0.0,0.0,17,0.00,,,0.05,Weather View 32 v70,2013-01-19 19:45:00,
2013-01-19 13:00:00,57.9,12.2,30.18,North,10,0.0,0.0,16,0.00,,,0.05,Weather View 32 v70,2013-01-19 20:00:00,
2013-01-19 13:05:00,58.2,12.3,30.17,North,10,0.0,0.0,16,0.00,,,0.05,Weather View 32 v70,2013-01-19 20:05:00,
2013-01-19 13:15:00,58.4,12.0,30.17,North,10,0.0,0.0,16,0.00,,,0.05,Weather View 32 v70,2013-01-19 20:15:00,
2013-01-19 13:20:00,58.8,11.8,30.17,North,10,0.0,0.0,15,0.00,,,0.05,Weather View 32 v70,2013-01-19 20:20:00,
2013-01-19 13:30:00,58.8,12.1,30.17,North,10,0.0,0.0,16,0.00,,,0.05,Weather View 32 v70,2013-01-19 20:30:00,
2013-01-19 13:35:00,59.0,11.8,30.17,North,10,0.0,0.0,15,0.00,,,0.05,Weather View 32 v70,2013-01-19 20:35:00,
2013-01-19 13:40:00,58.7,11.7,30.16,North,10,0.0,0.0,15,0.00,,,0.05,Weather View 32 v70,2013-01-19 20:40:00,
2013-01-19 13:50:00,58.9,11.4,30.16,North,10,0.0,0.0,15,0.00,,,0.05,Weather View 32 v70,2013-01-19 20:50:00,
2013-01-19 13:55:00,59.4,11.3,30.16,North,10,0.0,0.0,15,0.00,,,0.05,Weather View 32 v70,2013-01-19 20:55:00,
2013-01-19 14:05:00,59.4,11.0,30.16,North,10,0.0,0.0,15,0.00,,,0.05,Weather View 32 v70,2013-01-19 21:05:00,
2013-01-19 14:10:00,59.5,11.0,30.16,North,10,0.0,0.0,15,0.00,,,0.05,Weather View 32 v70,2013-01-19 21:10:00,
2013-01-19 14:20:00,60.1,11.0,30.16,North,10,0.0,0.0,14,0.00,,,0.05,Weather View 32 v70,2013-01-19 21:20:00,
2013-01-19 14:25:00,60.3,10.8,30.16,North,10,0.0,0.0,14,0.00,,,0.05,Weather View 32 v70,2013-01-19 21:25:00,
2013-01-19 14:35:00,60.7,10.8,30.16,North,10,0.0,0.0,14,0.00,,,0.05,Weather View 32 v70,2013-01-19 21:35:00,
2013-01-19 14:45:00,61.1,10.3,30.16,North,10,0.0,0.0,13,0.00,,,0.05,Weather View 32 v70,2013-01-19 21:45:00,
2013-01-19 14:50:00,60.7,10.3,30.16,North,10,0.0,0.0,14,0.00,,,0.05,Weather View 32 v70,2013-01-19 21:50:00,
2013-01-19 15:00:00,60.2,10.1,30.16,North,10,0.0,0.0,14,0.00,,,0.05,Weather View 32 v70,2013-01-19 22:00:00,
2013-01-19 15:05:00,60.3,9.7,30.16,North,10,0.0,0.0,13,0.00,,,0.05,Weather View 32 v70,2013-01-19 22:05:00,
2013-01-19 15:10:00,60.3,9.8,30.15,North,10,0.0,0.0,13,0.00,,,0.05,Weather View 32 v70,2013-01-19 22:10:00,
2013-01-19 15:20:00,60.3,9.8,30.16,North,10,0.0,0.0,13,0.00,,,0.05,Weather View 32 v70,2013-01-19 22:20:00,
2013-01-19 15:30:00,61.1,10.0,30.16,North,10,0.0,0.0,13,0.00,,,0.05,Weather View 32 v70,2013-01-19 22:30:00,
2013-01-19 15:40:00,61.3,9.8,30.16,North,10,0.0,0.0,13,0.00,,,0.05,Weather View 32 v70,2013-01-19 22:40:00,
2013-01-19 15:45:00,60.7,9.6,30.16,North,10,0.0,0.0,13,0.00,,,0.05,Weather View 32 v70,2013-01-19 22:45:00,
2013-01-19 15:55:00,60.4,9.4,30.16,North,10,0.0,0.0,13,0.00,,,0.05,Weather View 32 v70,2013-01-19 22:55:00,
2013-01-19 16:05:00,60.5,8.4,30.16,North,10,0.0,0.0,13,0.00,,,0.05,Weather View 32 v70,2013-01-19 23:05:00,
2013-01-19 16:20:00,60.1,6.9,30.16,North,10,0.0,0.0,12,0.00,,,0.05,Weather View 32 v70,2013-01-19 23:20:00,
2013-01-19 16:30:00,59.6,7.6,30.16,North,10,0.0,0.0,12,0.00,,,0.05,Weather View 32 v70,2013-01-19 23:30:00,
2013-01-19 16:35:00,59.1,7.9,30.16,North,10,0.0,0.0,13,0.00,,,0.05,Weather View 32 v70,2013-01-19 23:35:00,
2013-01-19 16:40:00,58.6,8.2,30.16,North,10,0.0,0.0,13,0.00,,,0.05,Weather View 32 v70,2013-01-19 23:40:00,
2013-01-19 16:45:00,58.2,8.5,30.16,North,10,0.0,0.0,14,0.00,,,0.05,Weather View 32 v70,2013-01-19 23:45:00,
2013-01-19 17:05:00,56.4,9.7,30.17,North,10,0.0,0.0,15,0.00,,,0.05,Weather View 32 v70,2013-01-20 00:05:00,
2013-01-19 17:10:00,55.7,9.1,30.17,North,10,0.0,0.0,15,0.00,,,0.05,Weather View 32 v70,2013-01-20 00:10:00,
2013-01-19 17:20:00,54.7,8.0,30.17,North,10,0.0,0.0,15,0.00,,,0.05,Weather View 32 v70,2013-01-20 00:20:00,
2013-01-19 17:25:00,54.3,7.8,30.17,North,10,0.0,0.0,15,0.00,,,0.05,Weather View 32 v70,2013-01-20 00:25:00,
2013-01-19 17:35:00,53.7,7.2,30.17,North,10,0.0,0.0,15,0.00,,,0.05,Weather View 32 v70,2013-01-20 00:35:00,
2013-01-19 17:40:00,53.4,7.0,30.17,North,10,0.0,0.0,15,0.00,,,0.05,Weather View 32 v70,2013-01-20 00:40:00,
2013-01-19 17:50:00,53.8,6.6,30.16,North,10,0.0,0.0,15,0.00,,,0.05,Weather View 32 v70,2013-01-20 00:50:00,
2013-01-19 18:00:00,53.5,7.2,30.17,North,10,0.0,0.0,15,0.00,,,0.05,Weather View 32 v70,2013-01-20 01:00:00,
2013-01-19 18:10:00,52.2,7.8,30.17,North,10,0.0,0.0,16,0.00,,,0.05,Weather View 32 v70,2013-01-20 01:10:00,
2013-01-19 18:20:00,50.8,8.1,30.18,North,10,0.0,0.0,18,0.00,,,0.05,Weather View 32 v70,2013-01-20 01:20:00,
2013-01-19 18:25:00,49.5,9.1,30.18,North,10,0.0,0.0,19,0.00,,,0.05,Weather View 32 v70,2013-01-20 01:25:00,
2013-01-19 18:30:00,48.7,9.6,30.18,North,10,0.0,0.0,20,0.00,,,0.05,Weather View 32 v70,2013-01-20 01:30:00,
2013-01-19 18:40:00,48.0,10.3,30.19,North,10,0.0,0.0,21,0.00,,,0.05,Weather View 32 v70,2013-01-20 01:40:00,
2013-01-19 18:50:00,47.4,11.1,30.19,North,10,0.0,0.0,23,0.00,,,0.05,Weather View 32 v70,2013-01-20 01:50:00,
2013-01-19 19:05:00,47.5,11.3,30.19,North,10,0.0,0.0,23,0.00,,,0.05,Weather View 32 v70,2013-01-20 02:05:00,
2013-01-19 19:15:00,47.3,12.0,30.18,North,10,0.0,0.0,24,0.00,,,0.05,Weather View 32 v70,2013-01-20 02:15:00,
2013-01-19 19:25:00,46.0,13.3,30.19,North,10,0.0,0.0,26,0.00,,,0.05,Weather View 32 v70,2013-01-20 02:25:00,
2013-01-19 19:35:00,46.4,13.4,30.19,North,10,0.0,0.0,26,0.00,,,0.05,Weather View 32 v70,2013-01-20 02:35:00,
2013-01-19 19:40:00,46.5,13.6,30.19,North,10,0.0,0.0,26,0.00,,,0.05,Weather View 32 v70,2013-01-20 02:40:00,
2013-01-19 19:50:00,46.4,13.3,30.19,North,10,0.0,0.0,26,0.00,,,0.05,Weather View 32 v70,2013-01-20 02:50:00,
2013-01-19 19:55:00,46.2,13.2,30.19,North,10,0.0,0.0,26,0.00,,,0.05,Weather View 32 v70,2013-01-20 02:55:00,
2013-01-19 20:00:00,46.0,12.9,30.19,North,10,0.0,0.0,26,0.00,,,0.05,Weather View 32 v70,2013-01-20 03:00:00,
2013-01-19 20:05:00,46.1,12.7,30.18,North,10,0.0,0.0,26,0.00,,,0.05,Weather View 32 v70,2013-01-20 03:05:00,
2013-01-19 20:15:00,46.7,12.8,30.18,North,10,0.0,0.0,25,0.00,,,0.05,Weather View 32 v70,2013-01-20 03:15:00,
2013-01-19 20:20:00,46.4,13.3,30.18,North,10,0.0,0.0,26,0.00,,,0.05,Weather View 32 v70,2013-01-20 03:20:00,
2013-01-19 20:30:00,46.0,13.3,30.19,North,10,0.0,0.0,26,0.00,,,0.05,Weather View 32 v70,2013-01-20 03:30:00,
2013-01-19 20:40:00,46.9,12.9,30.19,North,10,0.0,0.0,25,0.00,,,0.05,Weather View 32 v70,2013-01-20 03:40:00,
2013-01-19 20:50:00,46.0,13.5,30.18,North,10,0.0,0.0,27,0.00,,,0.05,Weather View 32 v70,2013-01-20 03:50:00,
2013-01-19 20:55:00,45.0,14.0,30.19,North,10,0.0,0.0,28,0.00,,,0.05,Weather View 32 v70,2013-01-20 03:55:00,
2013-01-19 21:05:00,42.9,14.1,30.18,North,10,0.0,0.0,31,0.00,,,0.05,Weather View 32 v70,2013-01-20 04:05:00,
2013-01-19 21:15:00,43.7,14.2,30.18,North,10,0.0,0.0,30,0.00,,,0.05,Weather View 32 v70,2013-01-20 04:15:00,
2013-01-19 21:25:00,43.3,13.8,30.18,North,10,0.0,0.0,30,0.00,,,0.05,Weather View 32 v70,2013-01-20 04:25:00,
2013-01-19 21:30:00,43.1,14.8,30.19,North,10,0.0,0.0,31,0.00,,,0.05,Weather View 32 v70,2013-01-20 04:30:00,
2013-01-19 21:40:00,42.5,13.4,30.18,North,10,0.0,0.0,30,0.00,,,0.05,Weather View 32 v70,2013-01-20 04:40:00,
2013-01-19 21:45:00,43.8,13.2,30.18,North,10,0.0,0.0,29,0.00,,,0.05,Weather View 32 v70,2013-01-20 04:45:00,
2013-01-19 21:50:00,44.6,13.1,30.18,North,10,0.0,0.0,28,0.00,,,0.05,Weather View 32 v70,2013-01-20 04:50:00,
2013-01-19 21:55:00,44.5,14.3,30.18,North,10,0.0,0.0,29,0.00,,,0.05,Weather View 32 v70,2013-01-20 04:55:00,
2013-01-19 22:05:00,42.2,14.7,30.18,North,10,0.0,0.0,32,0.00,,,0.05,Weather View 32 v70,2013-01-20 05:05:00,
2013-01-19 22:10:00,41.7,14.7,30.18,North,10,0.0,0.0,33,0.00,,,0.05,Weather View 32 v70,2013-01-20 05:10:00,
2013-01-19 22:15:00,39.9,14.6,30.17,North,10,0.0,0.0,35,0.00,,,0.05,Weather View 32 v70,2013-01-20 05:15:00,
2013-01-19 22:20:00,39.0,13.5,30.17,North,10,0.0,0.0,35,0.00,,,0.05,Weather View 32 v70,2013-01-20 05:20:00,
2013-01-19 22:25:00,39.3,13.2,30.18,North,10,0.0,0.0,34,0.00,,,0.05,Weather View 32 v70,2013-01-20 05:25:00,
2013-01-19 22:35:00,39.6,13.3,30.17,North,10,0.0,0.0,34,0.00,,,0.05,Weather View 32 v70,2013-01-20 05:35:00,
2013-01-19 22:40:00,39.6,13.8,30.17,North,10,0.0,0.0,34,0.00,,,0.05,Weather View 32 v70,2013-01-20 05:40:00,
2013-01-19 22:45:00,40.2,13.8,30.17,North,10,0.0,0.0,34,0.00,,,0.05,Weather View 32 v70,2013-01-20 05:45:00,
2013-01-19 22:50:00,40.5,14.0,30.16,North,10,0.0,0.0,34,0.00,,,0.05,Weather View 32 v70,2013-01-20 05:50:00,
2013-01-19 22:55:00,40.5,14.0,30.17,North,10,0.0,0.0,34,0.00,,,0.05,Weather View 32 v70,2013-01-20 05:55:00,
2013-01-19 23:00:00,40.7,13.2,30.16,North,10,0.0,0.0,32,0.00,,,0.05,Weather View 32 v70,2013-01-20 06:00:00,
2013-01-19 23:10:00,41.4,13.0,30.16,North,10,0.0,0.0,31,0.00,,,0.05,Weather View 32 v70,2013-01-20 06:10:00,
2013-01-19 23:20:00,41.9,12.3,30.16,North,10,0.0,0.0,30,0.00,,,0.05,Weather View 32 v70,2013-01-20 06:20:00,
2013-01-19 23:25:00,41.9,13.3,30.16,North,10,0.0,0.0,31,0.00,,,0.05,Weather View 32 v70,2013-01-20 06:25:00,
2013-01-19 23:30:00,40.9,13.5,30.16,North,10,0.0,0.0,32,0.00,,,0.05,Weather View 32 v70,2013-01-20 06:30:00,
2013-01-19 23:35:00,40.1,13.6,30.16,North,10,0.0,0.0,34,0.00,,,0.05,Weather View 32 v70,2013-01-20 06:35:00,
2013-01-19 23:45:00,38.3,14.2,30.16,North,10,0.0,0.0,37,0.00,,,0.05,Weather View 32 v70,2013-01-20 06:45:00,
2013-01-19 23:50:00,37.6,14.6,30.16,North,10,0.0,0.0,39,0.00,,,0.05,Weather View 32 v70,2013-01-20 06:50:00,
2013-01-19 23:55:00,36.0,14.4,30.16,North,10,0.0,0.0,41,0.00,,,0.05,Weather View 32 v70,2013-01-20 06:55:00,